Weather Roundup
Issued by NWS Springfield, MO

Home | Current Version | Previous Version | Text Only | Print | Product List | Glossary On
Versions: 1 2 3 4 5 6 7 8 9 10 11 12 13 14 15 16 17 18 19 20 21 22 23 24 25 26 27 28 29 30 31 32 33 34 35 36 37 38 39 40 41 42 43 44 45 46 47 48 49 50
000
NZUS99 KSGF 301207
HRRSGF

HOURLY WEATHER
NATIONAL WEATHER SERVICE SPRINGFIELD MO
700 AM CDT TUE JUN 30 2015

......SGF CWA......

CITY           SKY/WX    TMP DP  RH WIND       PRES   REMARKS
SPRINGFIELD    SUNNY     68  61  78 SW7       29.98R
6HR MIN TEMP:  67; 6HR MAX TEMP:  71;

JOPLIN         PTCLDY    67  65  93 CALM      29.98R
6HR MIN TEMP:  66; 6HR MAX TEMP:  71;

WEST PLAINS    SUNNY     67  63  87 W6        29.98R
6HR MIN TEMP:  66; 6HR MAX TEMP:  68;

ROLLA          SUNNY     66  65  96 CALM      29.94R
6HR MIN TEMP:  65; 6HR MAX TEMP:  69;

OSAGE BEACH    SUNNY     70  64  83 SW5       29.95R
BRANSON        CLOUDY    68  63  83 CALM      30.00S

......SURROUNDING SGF CWA......

CITY           SKY/WX    TMP DP  RH WIND       PRES   REMARKS
CHANUTE        PTCLDY    65  63  93 SW3       29.97R
PARSONS        PTCLDY    64  63  96 CALM      29.99R
COFFEYVILLE    CLEAR     65  64  97 S3        29.98R
EMPORIA        CLOUDY    66  60  81 W3        29.97R
GROVE OK       CLEAR     64  64 100 CALM      30.00R
ROGERS AR      CLEAR     67  64  90 SW5       30.02R
SILOAM SPRINGS CLEAR     64  57  77 SW5       30.02R
HARRISON AR    SUNNY     65  62  90 CALM      30.00R
NEAR YELLVILLE SUNNY     66  63  88 CALM      29.96R

......KANSAS AND MISSOURI......

CITY           SKY/WX    TMP DP  RH WIND       PRES   REMARKS
KANSAS CTY INT CLOUDY    67  64  90 W7        29.93R
DOWNTOWN KC    MOSUNNY   72  67  84 SW3       29.92R
COLUMBIA       SUNNY     69  65  86 W5        29.93R
SEDALIA        SUNNY     69  66  90 SW5       29.94S
ST JOSEPH      PTSUNNY   66  64  93 CALM      29.92R
ST LOUIS       SUNNY     72  66  81 W5        29.90R
SPIRIT OF STL  SUNNY     68  67  96 CALM      29.89R
KIRKSVILLE     SUNNY     66  63  90 W5        29.91S
WICHITA        MOCLDY    66  60  81 SW8       29.98R
TOPEKA         PTCLDY    67  65  93 W3        29.95R
OLATHE         MOSUNNY   69  62  78 W3        29.94R

......TENNESSEE......

CITY           SKY/WX    TMP DP  RH WIND       PRES   REMARKS
MEMPHIS        MOSUNNY   72  67  84 CALM      29.95R
NASHVILLE      PTSUNNY   71  70  96 S5        29.93S

......ARKANSAS.......

CITY           SKY/WX    TMP DP  RH WIND       PRES   REMARKS
FAYETTEVILLE   CLEAR     62  62 100 S5        30.02R
FT SMITH       CLEAR     71  67  87 CALM      29.98R
LITTLE ROCK    PTSUNNY   76  69  79 W3        29.96R

......OKLAHOMA.......

CITY           SKY/WX    TMP DP  RH WIND       PRES   REMARKS
TULSA          MOCLDY    71  66  84 CALM      29.99R
PONCA CITY     CLEAR     69  61  75 S3        29.99R
MCALESTER      CLEAR     67  64  90 CALM      30.01R
OKLAHOMA CITY  PTCLDY    68  62  81 CALM      30.02R

......IOWA............

CITY           SKY/WX    TMP DP  RH WIND       PRES   REMARKS
DES MOINES     CLOUDY    68  62  81 NW3       29.89R HAZE
QUAD CITIES    PTSUNNY   65  62  90 CALM      29.85R FOG

......ILLINOIS........

CITY           SKY/WX    TMP DP  RH WIND       PRES   REMARKS
QUINCY         SUNNY     66  64  93 W6        29.88R
CHICAGO        MOSUNNY   63  60  90 NW6       29.79S



USA.gov is the U.S. government's official web portal to all federal, state and local government web resources and services.